Regional Weather Roundup
Issued by NWS

Home | Current Version | Previous Version | Graphics & Text | Print | Product List | Glossary On
Versions: 1 2 3 4 5 6 7 8 9 10 11 12 13 14 15 16 17 18 19 20 21 22 23 24 25 26 27 28 29 30 31 32 33 34 35 36 37 38 39 40 41 42 43 44 45 46 47 48 49 50
000
ASUS43 KLSX 201959
RWRMO

WEATHER SUMMARY FOR MISSOURI
NATIONAL WEATHER SERVICE SPRINGFIELD MO
300 PM CDT THU JUL 20 2017

NOTE: "FAIR" INDICATES FEW OR NO CLOUDS BELOW 12,000 FEET WITH NO
       SIGNIFICANT WEATHER AND/OR OBSTRUCTIONS TO VISIBILITY.
       CURRENT SKY AND/OR WEATHER CONDITIONS ARE NOT AVAILABLE FOR
       CHILLICOTHE AND FARMINGTON.

MOZ001>031-035>038-043-044-053-054-202100-
...NORTHERN AND WESTERN MISSOURI...

CITY           SKY/WX    TMP DP  RH WIND       PRES   REMARKS
KANSAS CTY INT MOSUNNY   96  76  52 SW12      30.00F HX 109
KANSAS C DTWN  SUNNY     97  75  49 SW13      29.98F HX 109
LEE`S SUMMIT   SUNNY     96  75  50 SW10G20   30.01F HX 108
ST JOSEPH      SUNNY     94  80  64 SW9       29.98S HX 113
CHILLICOTHE      N/A     95  80  61 VRB5      29.99F HX 114
KIRKSVILLE     SUNNY     94  77  57 SW13      30.00F HX 108

$$
MOZ066>068-077>081-088>096-101>105-202100-
...SOUTHWEST MISSOURI...

CITY           SKY/WX    TMP DP  RH WIND       PRES   REMARKS
SPRINGFIELD    SUNNY     95  69  42 W12       30.08F HX 100
JOPLIN         MOSUNNY   97  74  47 SW14      30.06F HX 108
BRANSON        MOSUNNY   93  70  46 CALM      30.11F HX  99

$$
MOZ032>034-039>042-045>050-055>058-069>072-202100-
...CENTRAL MISSOURI...

CITY           SKY/WX    TMP DP  RH WIND       PRES   REMARKS
COLUMBIA       SUNNY     98  73  44 SW10      30.03F HX 108
JEFFERSON CITY SUNNY     97  72  44 W6        30.00F HX 105
ROLLA          SUNNY     93  71  48 SW7       30.05F HX 100
WARRENSBURG    SUNNY     95  72  46 SW9G17    30.02S HX 103
OSAGE BEACH    SUNNY     98  69  38 VRB7      30.03F HX 104

$$
MOZ051-052-059>065-202100-
...EAST CENTRAL MISSOURI...

CITY           SKY/WX    TMP DP  RH WIND       PRES   REMARKS
ST LOUIS INTL  MOSUNNY  101  65  30 W16       30.02F HX 104
SPIRIT OF STL  SUNNY     98  71  41 W10       30.01F HX 106
ST CHARLES     SUNNY     98  68  37 SW8       29.99F HX 103

$$
MOZ072>076-082>087-097>100-106>115-202100-
...SOUTH CENTRAL AND SOUTHEAST MISSOURI...

CITY           SKY/WX    TMP DP  RH WIND       PRES   REMARKS
CAPE GIRARDEAU MOSUNNY   93  73  52 S6        30.05S HX 102
FARMINGTON     SUNNY     95  70  44 VRB3      30.07F HX 101
POPLAR BLUFF   CLOUDY    92  77  61 S10       30.04F HX 105
WEST PLAINS    SUNNY     94  67  41 S6        30.10F HX  97

$$




USA.gov is the U.S. government's official web portal to all federal, state and local government web resources and services.